Regional Weather Roundup
Issued by NWS Jackson, KY

Home | Current Version | Previous Version | Text Only | Print | Product List | Glossary Off
Versions: 1 2 3 4 5 6 7 8 9 10 11 12 13 14 15 16 17 18 19 20 21 22 23 24 25 26 27 28 29 30 31 32 33 34 35 36 37 38 39 40 41 42 43 44 45 46 47 48 49 50

470
ASUS43 KJKL 220410
RWRJKL

EAST KENTUCKY HOURLY WEATHER ROUNDUP
NATIONAL WEATHER SERVICE JACKSON KY
1100 PM EST TUE FEB 21 2017

NOTE: "FAIR" INDICATES FEW OR NO CLOUDS BELOW 12,000 FEET WITH
NO SIGNIFICANT WEATHER AND/OR OBSTRUCTIONS TO VISIBILITY.

* THESE REPORTS ARE NOT UNDER NWS QUALITY CONTROL AND MAY NOT
  REPORT WEATHER SUCH AS PRECIPITATION AND FOG.

KYZ079-080-083-085-087-088-110-112-115-119-120-220500
...EASTERN KENTUCKY...

CITY           SKY/WX    TMP DP  RH WIND       PRES   REMARKS
JACKSON        LGT RAIN  63  44  50 S3        29.99F
LONDON         CLOUDY    58  51  78 CALM      29.99F
SOMERSET*      CLOUDY    54  54 100 CALM      29.99F
MONTICELLO*    LGT RAIN  57  53  86 NE7       29.99F
WILLIAMSBURG*  CLOUDY    55  55 100 E3        29.99F
MIDDLESBORO*   CLOUDY    56  53  89 NW3       30.00S
HARLAN APT*    CLOUDY    61  43  51 CALM      30.01F
PIKE CO APT*   MOCLDY    63  44  49 S5        29.99F
BIG SANDY APT* CLOUDY    64  42  44 S6        29.99S
MOREHEAD APT*  CLOUDY    61  52  72 CALM      30.00F
ASHLAND*       CLOUDY    61  54  77 W5        29.96F
$$

KYZ035-036-041-042-044-050-067-078-099-220500
...CENTRAL KENTUCKY...

CITY           SKY/WX    TMP DP  RH WIND       PRES   REMARKS
MT STERLING*   CLOUDY    59  50  72 W3        30.00S
FLEMING/MASON* LGT RAIN  55  55  97 E5        30.00F
DANVILLE*      DRIZZLE   55  54  94 S5        29.99F
LEXINGTON      LGT RAIN  57  55  93 NE5       29.99F FOG
FRANKFORT      LGT RAIN  58  55  90 CALM      29.97F FOG
LOUISVILLE     CLOUDY    61  54  77 SE7       29.95F
LEBANON*       MOCLDY    57  54  88 S6        29.98S
GLASGOW*       LGT RAIN  56  56 100 CALM      29.96S
BOWLING GREEN  LGT RAIN  57  55  93 CALM      29.95F
$$

KYZ091>093-OHZ055-061-077-WVZ005-015-034-035-042-220500
...SOUTHERN OHIO/WEST VIRGINIA...

CITY           SKY/WX    TMP DP  RH WIND       PRES   REMARKS
COVINGTON      LGT RAIN  56  55  97 S5        29.97F FOG
COLUMBUS       LGT RAIN  58  52  80 SW7       29.98S
DAYTON         LGT RAIN  55  53  93 S7        29.97F
WILMINGTON     CLOUDY    52  51  97 SE3       29.98F
HUNTINGTON     CLOUDY    62  47  57 N7        29.96F
CHARLESTON     CLOUDY    63  42  46 SE7       29.97F
PINEVILLE*     CLOUDY    55  43  62 MISG      30.08F
BECKLEY        CLOUDY    52  39  61 SE8       30.06F
BLUEFIELD      CLOUDY    51  39  63 VRB5      30.07F
LOGAN CO APT*  CLOUDY    63  43  48 S9G15     30.00F
$$

VAZ002-007-008-TNZ017-027-036-066-071-220500
...SOUTHWEST VIRGINIA/EAST TENNESSEE...

CITY           SKY/WX    TMP DP  RH WIND       PRES   REMARKS
WISE*          CLOUDY    55  41  58 CALM      30.05F
JONESVILLE*    CLOUDY    59  46  63 CALM      30.03F
ABINGDON*      CLOUDY    57  45  64 SE5       30.05F
BRISTOL        CLOUDY    58  45  62 E3        30.03F
MORRISTOWN*    CLOUDY    61  48  63 E5        29.98F
SEVIERVILLE*   CLOUDY    55  46  71 CALM      29.97F
KNOXVILLE      CLOUDY    60  49  66 CALM      29.97F
LAFOLLETTE*    CLOUDY    55  55 100 CALM      30.01F FOG
OAK RIDGE      CLOUDY    59  52  77 CALM      29.99F
CROSSVILLE     CLOUDY    53  51  93 CALM      29.98F
NASHVILLE      MOCLDY    58  56  93 CALM      29.94F
$$

...KEY TO REMARKS...
VSB - VISIBILITY IN MILES
WCI - WIND CHILL INDEX
HX  - HEAT INDEX

$$




USA.gov is the U.S. government's official web portal to all federal, state and local government web resources and services.